• In Belarus
  • List of Countries
  • For 7 days
  • Water Temperature
  • Satellite Maps
  • Weather Map
  • Weather Widgets
  • user-avatar
    Login

    Hourly Weather Mycielin

    Today, 18 August, Saturday

    Time Temperature Precipitation Wind Pressure Humidity
    00:00 +23°C° 0.1 mm 2 mps 749 mmHg 61%
    01:00 +21°C° 0.1 mm 2 mps 750 mmHg 65%
    02:00 +20°C° 0.1 mm 2 mps 750 mmHg 71%
    03:00 +20°C° 0.1 mm 2 mps 750 mmHg 76%
    04:00 +19°C° 0.1 mm 2 mps 750 mmHg 82%
    05:00 +19°C° 0 mm 2 mps 750 mmHg 82%
    06:00 +20°C° 0 mm 2 mps 751 mmHg 82%
    07:00 +20°C° 0 mm 2 mps 751 mmHg 82%
    08:00 +22°C° 0 mm 3 mps 751 mmHg 75%
    09:00 +24°C° 0 mm 3 mps 752 mmHg 68%
    10:00 +26°C° 0 mm 3 mps 752 mmHg 61%
    11:00 +27°C° 0 mm 3 mps 752 mmHg 56%
    12:00 +28°C° 0 mm 2 mps 752 mmHg 51%
    13:00 +30°C° 0 mm 2 mps 752 mmHg 46%
    14:00 +30°C° 0 mm 2 mps 752 mmHg 45%
    15:00 +30°C° 0 mm 2 mps 752 mmHg 45%
    16:00 +29°C° 0 mm 2 mps 752 mmHg 45%
    17:00 +28°C° 0 mm 2 mps 752 mmHg 49%
    18:00 +27°C° 0 mm 2 mps 752 mmHg 54%
    19:00 +25°C° 0 mm 1 mps 752 mmHg 58%
    20:00 +24°C° 0.1 mm 1 mps 752 mmHg 61%
    21:00 +23°C° 0.1 mm 1 mps 752 mmHg 64%
    22:00 +22°C° 0.1 mm 1 mps 753 mmHg 67%
    23:00 +22°C° 0 mm 1 mps 753 mmHg 68%

    Tomorrow, 19 August, Sunday

    Time Temperature Precipitation Wind Pressure Humidity
    00:00 +21°C° 0 mm 1 mps 753 mmHg 69%
    01:00 +21°C° 0 mm 1 mps 753 mmHg 70%
    02:00 +20°C° 0 mm 1 mps 753 mmHg 71%
    03:00 +20°C° 0 mm 1 mps 753 mmHg 72%
    04:00 +18°C° 0 mm 0 mps 753 mmHg 73%
    05:00 +19°C° 0 mm 0 mps 753 mmHg 70%
    06:00 +20°C° 0 mm 0 mps 753 mmHg 67%
    07:00 +21°C° 0 mm 0 mps 753 mmHg 64%
    08:00 +25°C° 0 mm 1 mps 753 mmHg 58%
    09:00 +26°C° 0 mm 1 mps 753 mmHg 51%
    10:00 +28°C° 0 mm 1 mps 754 mmHg 45%
    11:00 +29°C° 0 mm 1 mps 753 mmHg 43%
    12:00 +30°C° 0 mm 1 mps 753 mmHg 40%
    13:00 +30°C° 0 mm 1 mps 753 mmHg 37%
    14:00 +30°C° 0 mm 1 mps 752 mmHg 37%
    15:00 +30°C° 0 mm 1 mps 752 mmHg 37%
    16:00 +30°C° 0 mm 1 mps 752 mmHg 37%
    17:00 +29°C° 0 mm 1 mps 751 mmHg 41%
    18:00 +27°C° 0 mm 1 mps 751 mmHg 45%
    19:00 +26°C° 0 mm 1 mps 751 mmHg 49%
    20:00 +25°C° 0 mm 1 mps 751 mmHg 51%
    21:00 +24°C° 0 mm 1 mps 751 mmHg 54%
    22:00 +21°C° 0 mm 0 mps 752 mmHg 56%
    23:00 +22°C° 0 mm 1 mps 751 mmHg 57%

    Day after tomorrow, 20 August, Monday

    Time Temperature Precipitation Wind Pressure Humidity
    00:00 +22°C° 0 mm 1 mps 751 mmHg 59%
    01:00 +21°C° 0 mm 1 mps 751 mmHg 60%
    02:00 +21°C° 0 mm 1 mps 751 mmHg 61%
    03:00 +21°C° 0 mm 1 mps 750 mmHg 62%
    04:00 +21°C° 0 mm 1 mps 750 mmHg 63%
    05:00 +22°C° 0 mm 1 mps 750 mmHg 61%
    06:00 +22°C° 0 mm 1 mps 750 mmHg 59%
    07:00 +23°C° 0 mm 1 mps 750 mmHg 56%
    08:00 +25°C° 0 mm 1 mps 750 mmHg 50%
    09:00 +27°C° 0 mm 2 mps 750 mmHg 45%
    10:00 +29°C° 0 mm 2 mps 750 mmHg 39%
    11:00 +30°C° 0 mm 2 mps 750 mmHg 37%
    12:00 +31°C° 0 mm 2 mps 750 mmHg 35%
    13:00 +33°C° 0 mm 3 mps 749 mmHg 34%
    14:00 +33°C° 0 mm 3 mps 749 mmHg 35%
    15:00 +31°C° 0 mm 3 mps 749 mmHg 36%
    16:00 +31°C° 0 mm 3 mps 749 mmHg 37%
    17:00 +30°C° 0 mm 3 mps 749 mmHg 42%
    18:00 +28°C° 0 mm 3 mps 749 mmHg 47%
    19:00 +27°C° 0 mm 2 mps 749 mmHg 52%
    20:00 +26°C° 0 mm 2 mps 749 mmHg 57%
    21:00 +24°C° 0 mm 2 mps 749 mmHg 62%
    22:00 +23°C° 0 mm 2 mps 749 mmHg 66%
    23:00 +21°C° 0 mm 2 mps 749 mmHg 70%

    21 August, Tuesday

    Time Temperature Precipitation Wind Pressure Humidity
    00:00 +21°C° 0 mm 2 mps 750 mmHg 75%
    01:00 +20°C° 0 mm 2 mps 750 mmHg 79%
    02:00 +20°C° 0 mm 2 mps 750 mmHg 81%
    03:00 +19°C° 0 mm 2 mps 750 mmHg 84%
    04:00 +19°C° 0 mm 2 mps 750 mmHg 86%
    05:00 +19°C° 0 mm 2 mps 751 mmHg 85%
    06:00 +20°C° 0 mm 3 mps 751 mmHg 83%
    07:00 +20°C° 0 mm 3 mps 751 mmHg 81%
    08:00 +21°C° 0 mm 3 mps 752 mmHg 74%
    09:00 +24°C° 0 mm 3 mps 752 mmHg 67%
    10:00 +25°C° 0 mm 3 mps 752 mmHg 60%
    11:00 +26°C° 0 mm 3 mps 752 mmHg 56%
    12:00 +26°C° 0 mm 3 mps 752 mmHg 52%
    13:00 +27°C° 0 mm 3 mps 752 mmHg 49%
    14:00 +27°C° 0 mm 3 mps 752 mmHg 49%
    15:00 +27°C° 0 mm 3 mps 752 mmHg 49%
    16:00 +27°C° 0 mm 3 mps 752 mmHg 49%
    17:00 +26°C° 0 mm 2 mps 752 mmHg 53%
    18:00 +25°C° 0 mm 2 mps 752 mmHg 58%
    19:00 +24°C° 0 mm 1 mps 752 mmHg 62%
    20:00 +23°C° 0 mm 1 mps 752 mmHg 65%
    21:00 +22°C° 0 mm 1 mps 752 mmHg 69%
    22:00 +21°C° 0 mm 1 mps 752 mmHg 72%
    23:00 +21°C° 0 mm 1 mps 752 mmHg 73%

    22 August, Wednesday

    Time Temperature Precipitation Wind Pressure Humidity
    00:00 +20°C° 0 mm 1 mps 752 mmHg 75%
    01:00 +20°C° 0 mm 1 mps 752 mmHg 77%
    02:00 +20°C° 0 mm 1 mps 752 mmHg 79%
    03:00 +19°C° 0 mm 1 mps 752 mmHg 81%
    04:00 +19°C° 0 mm 1 mps 752 mmHg 82%
    05:00 +20°C° 0 mm 1 mps 752 mmHg 78%
    06:00 +21°C° 0 mm 1 mps 752 mmHg 74%
    07:00 +22°C° 0 mm 1 mps 752 mmHg 69%
    08:00 +24°C° 0 mm 1 mps 752 mmHg 62%
    09:00 +26°C° 0 mm 1 mps 752 mmHg 54%
    10:00 +28°C° 0 mm 1 mps 752 mmHg 46%
    11:00 +29°C° 0 mm 1 mps 752 mmHg 43%
    12:00 +31°C° 0 mm 1 mps 752 mmHg 40%
    13:00 +32°C° 0 mm 1 mps 751 mmHg 37%
    14:00 +31°C° 0 mm 1 mps 751 mmHg 38%
    15:00 +30°C° 0 mm 1 mps 751 mmHg 40%
    16:00 +30°C° 0 mm 1 mps 751 mmHg 42%
    17:00 +28°C° 0 mm 1 mps 751 mmHg 46%
    18:00 +27°C° 0 mm 1 mps 751 mmHg 50%
    19:00 +26°C° 0 mm 1 mps 750 mmHg 54%
    20:00 +25°C° 0 mm 1 mps 751 mmHg 57%
    21:00 +24°C° 0 mm 1 mps 751 mmHg 61%
    22:00 +23°C° 0 mm 1 mps 751 mmHg 64%
    23:00 +23°C° 0 mm 1 mps 751 mmHg 66%

    23 August, Thursday

    Time Temperature Precipitation Wind Pressure Humidity
    00:00 +22°C° 0 mm 1 mps 751 mmHg 68%
    01:00 +22°C° 0 mm 1 mps 751 mmHg 70%
    02:00 +19°C° 0 mm 0 mps 751 mmHg 72%
    03:00 +19°C° 0 mm 0 mps 751 mmHg 74%
    04:00 +19°C° 0 mm 0 mps 751 mmHg 76%
    05:00 +20°C° 0 mm 0 mps 751 mmHg 72%
    06:00 +21°C° 0 mm 0 mps 751 mmHg 69%
    07:00 +22°C° 0 mm 0 mps 751 mmHg 65%
    08:00 +24°C° 0 mm 0 mps 751 mmHg 58%
    09:00 +28°C° 0 mm 1 mps 751 mmHg 51%
    10:00 +30°C° 0 mm 1 mps 750 mmHg 44%
    11:00 +31°C° 0 mm 1 mps 750 mmHg 42%
    12:00 +32°C° 0 mm 1 mps 750 mmHg 39%
    13:00 +32°C° 0 mm 1 mps 749 mmHg 36%
    14:00 +32°C° 0 mm 1 mps 749 mmHg 37%
    15:00 +31°C° 0 mm 1 mps 748 mmHg 38%
    16:00 +31°C° 0 mm 1 mps 748 mmHg 39%
    17:00 +29°C° 0 mm 1 mps 748 mmHg 43%
    18:00 +28°C° 0 mm 2 mps 747 mmHg 47%
    19:00 +27°C° 0 mm 2 mps 747 mmHg 51%
    20:00 +26°C° 0 mm 2 mps 747 mmHg 54%
    21:00 +25°C° 0 mm 2 mps 747 mmHg 57%
    22:00 +24°C° 0 mm 2 mps 747 mmHg 60%
    23:00 +24°C° 0 mm 2 mps 747 mmHg 61%
    Show more